Home   Weather   Białystok   Past weeks

Flag for Poland Past Weather in Białystok, Poland — Yesterday and Last 2 Weeks

Now
25 °F

Fog.


Feels Like: 25 °F
Forecast: 14 / 26 °F
Wind: 1 mph from South

Location: Bialystok

Current Time: Jan 17, 2017 at 8:41:08 pm

Latest Report: Jan 17, 2017 at 7:00 pm


Visibility: 1 mi

Pressure: 30.65 "Hg

Humidity: 95%

Dew Point: 24 °F

Location of BiałystokLocation

Past Weather in Białystok — Graph

°F

Białystok Temperature Yesterday

Maximum temperature yesterday: 29 °F (at 2:00 pm)
Minimum temperature yesterday: 24 °F (at 11:00 pm)
Average temperature yesterday: 26 °F

High & Low Weather Summary for the Past Weeks

 TemperatureHumidityPressure
High34 °F (Jan 4, 1:00 pm)97% (Jan 4, 9:00 pm)30.65 "Hg (Jan 4, 9:00 pm)
Low-10 °F (Jan 7, 8:00 am)66% (Jan 6, 12:00 pm)29.12 "Hg (Jan 4, 2:00 pm)
Average19 °F86%30.00 "Hg
* Reported Jan 2 7:00 pm — Jan 17 7:00 pm, Białystok, Weather by CustomWeather, © 2017

Note: Actual official high and low records may vary slightly from our data, if they occured in-between our weather recording intervals... More about our weather records

Advertising

Białystok Weather History for the Previous 24 Hours

Scroll right to see more
 ConditionsComfort  
Time TempWeatherWind HumidityBarometerVisibility
7:00 pm
Tue, Jan 17
25 °FFog.1 mph95%30.65 "Hg1 mi
6:00 pm26 °FFog.1 mph95%30.62 "Hg1 mi
5:00 pm26 °FFog.No wind95%30.62 "Hg1 mi
4:00 pm26 °FFog.1 mph95%30.61 "Hg1 mi
3:00 pm26 °FFog.1 mph95%30.60 "Hg1 mi
2:00 pm26 °FFog.1 mph95%30.59 "Hg1 mi
1:00 pm26 °FFog.No wind95%30.58 "Hg1 mi
12:00 pm26 °FSnow flurries. Low clouds.No wind95%30.57 "Hg1 mi
11:00 am25 °FFog.No wind95%30.56 "Hg1 mi
10:00 am24 °FFog.No wind95%30.55 "Hg1 mi
9:00 am23 °FFog.1 mph94%30.54 "Hg1 mi
8:00 am23 °FFog.No wind94%30.53 "Hg1 mi
7:00 am22 °FFog.No wind94%30.50 "Hg1 mi
6:00 am22 °FFog.No wind94%30.47 "Hg1 mi
5:00 am21 °FFog.1 mph94%30.46 "Hg2 mi
4:00 am21 °FFog.No wind94%30.45 "Hg1 mi
3:00 am21 °FLight snow. Low clouds.1 mph94%30.43 "Hg1 mi
2:00 am21 °FFog.1 mph94%30.42 "Hg1 mi
1:00 am22 °FLight snow. Low clouds.1 mph95%30.40 "Hg1 mi
12:00 am23 °FFog.1 mph96%30.39 "Hg1 mi
11:00 pm
Mon, Jan 16
24 °FFog.1 mph93%30.37 "Hg1 mi
10:00 pm26 °FFog.2 mph95%30.35 "Hg1 mi
9:00 pm24 °FOvercast.1 mph94%30.33 "Hg1 mi
8:00 pm26 °FLight snow. Low clouds.No wind94%30.31 "Hg1 mi
Weather by CustomWeather, © 2017

See weather overviewHow to use our weather pages